This is the latest recevied weather packets stored in our database for station/object N1IJV-10. If no packets are shown the sender has not sent any weather packets the latest 10 day(s).
| Time | Temp. | Humidity | Pressure | Rain* | Wind** | Luminosity | Snow |
|---|---|---|---|---|---|---|---|
| 1778020537 | 12.78° C | 46% | 1008.2 hPa | 0 mm | - | 78 W/m² | - |
| 1778020233 | 12.78° C | 42% | 1008.2 hPa | 0 mm | - | 89 W/m² | - |
| 1778019930 | 12.78° C | 42% | 1008.3 hPa | 0 mm | - | 105 W/m² | - |
| 1778019626 | 12.78° C | 42% | 1008.3 hPa | 0 mm | - | 104 W/m² | - |
| 1778019323 | 13.33° C | 48% | 1008.4 hPa | 0 mm | - | 124 W/m² | - |
| 1778019020 | 13.33° C | 43% | 1008.1 hPa | 0 mm | - | 164 W/m² | - |
| 1778018717 | 13.33° C | 44% | 1008.3 hPa | 0 mm | - | 163 W/m² | - |
| 1778018415 | 12.78° C | 40% | 1008.3 hPa | 0 mm | - | 141 W/m² | - |
| 1778018113 | 12.78° C | 42% | 1008.6 hPa | 0 mm | - | 124 W/m² | - |
| 1778017810 | 12.78° C | 44% | 1008.6 hPa | 0 mm | - | 126 W/m² | - |
| 1778017509 | 12.78° C | 44% | 1008.3 hPa | 0 mm | - | 115 W/m² | - |
| 1778017205 | 12.78° C | 46% | 1008.5 hPa | 0 mm | - | 104 W/m² | - |
| 1778016903 | 12.78° C | 47% | 1008.4 hPa | 0 mm | - | 110 W/m² | - |
| 1778016599 | 12.78° C | 40% | 1008.3 hPa | 0 mm | - | 113 W/m² | - |
| 1778016295 | 13.33° C | 45% | 1008.3 hPa | 0 mm | - | 136 W/m² | - |
| 1778015992 | 13.33° C | 42% | 1008.6 hPa | 0 mm | - | 194 W/m² | - |
| 1778015690 | 12.78° C | 40% | 1008.4 hPa | 0 mm | - | 240 W/m² | - |
| 1778015386 | 12.78° C | 42% | 1008.5 hPa | 0 mm | - | 159 W/m² | - |
| 1778015083 | 12.78° C | 42% | 1008.4 hPa | 0 mm | - | 161 W/m² | - |
| 1778014780 | 12.78° C | 40% | 1008.3 hPa | 0 mm | - | 183 W/m² | - |
| 1778014478 | 12.78° C | 42% | 1008.4 hPa | 0 mm | - | 140 W/m² | - |
| 1778014175 | 12.78° C | 44% | 1008.4 hPa | 0 mm | - | 157 W/m² | - |
| 1778013873 | 12.78° C | 45% | 1008.4 hPa | 0 mm | - | 149 W/m² | - |
| 1778013570 | 12.78° C | 42% | 1008.5 hPa | 0 mm | - | 176 W/m² | - |
| 1778013266 | 12.78° C | 40% | 1008.7 hPa | 0 mm | - | 164 W/m² | - |
* Rain latest hour (hover to see other rain measurements)
** Current wind speed in m/s (hover to see current wind gust speed)